Regional Weather Roundup
Issued by NWS

Home | Current Version | Previous Version | Graphics & Text | Print | Product List | Glossary On
Versions: 1 2 3 4 5 6 7 8 9 10 11 12 13 14 15 16 17 18 19 20 21 22 23 24 25 26 27 28 29 30 31 32 33 34 35 36 37 38 39 40 41 42 43 44 45 46 47 48 49 50
000
ASUS45 KABQ 241610
RWRNM
NEW MEXICO REGIONAL WEATHER ROUNDUP
NATIONAL WEATHER SERVICE ALBUQUERQUE NM
1000 AM MDT WED AUG 24 2016

NOTE: "FAIR" MEANS FEW OR NO CLOUDS BELOW 12,000 FEET AGL WITH NO
       SIGNIFICANT WEATHER OR OBSTRUCTIONS TO VISION.

      THIS PRODUCT IS RELEASED AS TWO VERSIONS.  ONE VERSION NEAR
      THE TOP OF THE HOUR CONTAINING PRELIMINARY DATA FROM ALBUQUERQUE
      AND OTHER STATIONS.  A FINAL VERSION WITH ADDITIONAL DATA IS
      ISSUED ABOUT 10 MINUTES AFTER THE HOUR.

NMZ501-503-504-510>518-241700-
NORTHWEST PLATEAU/NORTHCENTRAL MOUNTAINS

CITY           SKY/WX    TMP DP  RH WIND       PRES   REMARKS
FARMINGTON     FAIR      60  53  77 W7        30.26R
LOS ALAMOS     CLOUDY    57  49  74 NE5       30.33S
SANTA FE       PTSUNNY   63  49  60 N7        30.28S
TAOS           CLOUDY    57  45  62 N6        30.34R
ANGEL FIRE     CLOUDY    56  42  60 N6        30.38F

$$
NMZ402-403-502-505>509-241700-
WESTCENTRAL MOUNTAINS/SOUTHWEST MOUNTAINS

CITY           SKY/WX    TMP DP  RH WIND       PRES   REMARKS
GALLUP         CLOUDY    58  50  75 CALM      30.33R
GRANTS         CLOUDY    59  49  68 N5        30.34S
SILVER CITY    FAIR      72  47  41 NW7       30.26S

$$
NMZ407-409-411-412-241700-
SOUTHERN DESERTS

CITY           SKY/WX    TMP DP  RH WIND       PRES   REMARKS
DEMING         FAIR      77  51  40 W8        30.19F
LAS CRUCES     FAIR      75  58  56 CALM      30.20F
HOLLOMAN AFB   FAIR      76  58  53 S14       30.16R
ALAMOGORDO     FAIR      75  57  53 S14       30.18S
T OR C         FAIR      73  45  36 NW5       30.21S

$$
NMZ519>523-241700-
CENTRAL VALLEYS/CENTRAL HIGHLANDS

CITY           SKY/WX    TMP DP  RH WIND       PRES   REMARKS
ALBUQUERQUE    PTSUNNY   66  50  56 CALM      30.26R
MORIARTY ARPT  CLOUDY    62  49  61 N5        30.29S
CLINES CORNERS CLOUDY    63  46  54 NW9       30.31R
BELEN          CLOUDY    67  50  53 E6        30.25S
SOCORRO        CLOUDY    70  47  43 N6        30.23S

$$
NMZ524>526-539-540-241700-
SOUTHCENTRAL MOUNTAINS

CITY           SKY/WX    TMP DP  RH WIND       PRES   REMARKS
RUIDOSO          N/A     64  48  55 W6        30.33S

$$
NMZ527>531-241700-
NORTHEAST HIGHLANDS/NORTHEAST PLAINS

CITY           SKY/WX    TMP DP  RH WIND       PRES   REMARKS
LAS VEGAS      FAIR      64  47  53 CALM      30.29S
RATON          FAIR      67  46  47 VRB6      30.25S
CLAYTON        FAIR      70  52  52 N5        30.19R

$$
NMZ532>537-241700-
EASTCENTRAL PLAINS

CITY           SKY/WX    TMP DP  RH WIND       PRES   REMARKS
TUCUMCARI      FAIR      74  60  61 SW15      30.14S
CANNON AFB     FAIR      73  56  54 W20       30.17S
CLOVIS AIRPORT FAIR      73  55  53 W18       30.17R

$$
NMZ028-029-538-241700-
SOUTHEAST PLAINS

CITY           SKY/WX    TMP DP  RH WIND       PRES   REMARKS
ROSWELL        FAIR      69  63  81 S16       30.14R
ARTESIA        FAIR      68  68 100 S17       30.15F
CARLSBAD       FAIR      67  62  84 S15       30.14F
HOBBS          SUNNY     66  66 100 S12       30.19R


$$




USA.gov is the U.S. government's official web portal to all federal, state and local government web resources and services.